Regional Weather Roundup
Issued by NWS

Home | Current Version | Previous Version | Text Only | Print | Product List | Glossary On
Versions: 1 2 3 4 5 6 7 8 9 10 11 12 13 14 15 16 17 18 19 20 21 22 23 24 25 26 27 28 29 30 31 32 33 34 35 36 37 38 39 40 41 42 43 44 45 46 47 48 49 50
000
ASUS43 KDTX 011810
RWRMI
MICHIGAN HOURLY REGIONAL WEATHER ROUNDUP
NATIONAL WEATHER SERVICE DETROIT/PONTIAC MI
200 PM EDT WED APR 01 2015

NOTE: "FAIR" INDICATES FEW OR NO CLOUDS BELOW 12,000 FEET WITH NO
SIGNIFICANT WEATHER AND/OR OBSTRUCTION TO VISIBILITY.

MIZ047>049-052>055-059>063-066>070-074>076-081>083-011900-
SOUTHEAST LOWER MICHIGAN

CITY           SKY/WX    TMP DP  RH WIND       PRES   REMARKS
ADRIAN         SUNNY     61  36  39 NW15G22   30.09F
6HR MIN TEMP:  28; 6HR MAX TEMP:  61;

ALMA           SUNNY     51  34  53 CALM      30.09F
ANN ARBOR      SUNNY     58  36  43 W7        30.09F
BAD AXE        SUNNY     47  29  49 S9        30.11F
6HR MIN TEMP:  29; 6HR MAX TEMP:  47;

CARO           SUNNY     50  33  51 SW3       30.10F
DETROIT CITY   SUNNY     51  35  54 SE8       30.13S
6HR MIN TEMP:  36; 6HR MAX TEMP:  52;

DETROIT        MOSUNNY   57  36  45 W3        30.11F
6HR MIN TEMP:  33; 6HR MAX TEMP:  57;

FLINT          SUNNY     55  30  38 W6        30.09F
6HR MIN TEMP:  29; 6HR MAX TEMP:  55;

GROSSE ILE     SUNNY     46  37  71 SE8       30.11F
HILLSDALE      SUNNY     61  36  38 W10       30.08F
HOWELL         MOSUNNY   55  32  41 W5        30.08F
6HR MIN TEMP:  28; 6HR MAX TEMP:  55;


CITY           SKY/WX    TMP DP  RH WIND       PRES   REMARKS
JACKSON        SUNNY     60  34  37 SW9       30.07F
6HR MIN TEMP:  27; 6HR MAX TEMP:  60;

LAMBERTVILLE   SUNNY     59  39  47 W7        30.10F
LANSING        SUNNY     56  32  40 W8        30.08F
6HR MIN TEMP:  30; 6HR MAX TEMP:  56;

LAPEER         FAIR      46  34  62 CALM      30.11F
MASON          SUNNY     56  34  42 CALM      30.08F
MONROE         SUNNY     55  41  58 W5        30.09F
MT. CLEMENS    MOSUNNY   41  39  91 E6        30.11F FOG
6HR MIN TEMP:  28; 6HR MAX TEMP:  41;

PONTIAC        MOSUNNY   53  31  42 VRB3      30.08F
6HR MIN TEMP:  29; 6HR MAX TEMP:  54;

PORT HOPE        N/A     35  28  75 E16       30.11F WCI  25
6HR MIN TEMP:  30; 6HR MAX TEMP:  35;

PORT HURON     SUNNY     46  37  71 CALM      30.13F
TRI CITIES     MOSUNNY   50  34  54 S8        30.10F
6HR MIN TEMP:  31; 6HR MAX TEMP:  50;

TROY           SUNNY     54  33  45 CALM      30.12F
SAGINAW HB     SUNNY     50  34  53 SE5       30.09F
$$
MIZ043>046-050>051-056>058-064>065-071>073-077>080-011900-
SOUTHWEST LOWER MICHIGAN

CITY           SKY/WX    TMP DP  RH WIND       PRES   REMARKS
BATTLE CREEK   SUNNY     62  36  37 VRB6      30.07F
6HR MIN TEMP:  29; 6HR MAX TEMP:  62;

BENTON HARBOR  SUNNY     62  37  39 W5        30.04F
6HR MIN TEMP:  27; 6HR MAX TEMP:  63;

BIG RAPIDS     MOSUNNY   54  35  48 S5        30.05F
COLDWATER      SUNNY     61  34  36 W10       30.08F
6HR MIN TEMP:  29; 6HR MAX TEMP:  61;

FREMONT        FAIR      55  25  30 CALM      30.05S
HOLLAND        SUNNY     62  38  40 SW10      30.06F
6HR MIN TEMP:  31; 6HR MAX TEMP:  63;

GRAND RAPIDS   MOSUNNY   59  34  39 SW8       30.07F
6HR MIN TEMP:  28; 6HR MAX TEMP:  59;

IONIA          FAIR      55  35  46 CALM      30.07F
KALAMAZOO      SUNNY     61  37  41 W10       30.07F
LUDINGTON      PTSUNNY   56  36  47 SW5       30.04F
6HR MIN TEMP:  26; 6HR MAX TEMP:  56;

MARSHALL       SUNNY     60  36  40 S7        30.06F
MOUNT PLEASANT SUNNY     49  33  53 NE3       30.07F
6HR MIN TEMP:  27; 6HR MAX TEMP:  50;

MUSKEGON       MOSUNNY   59  32  36 S8        30.06F
6HR MIN TEMP:  29; 6HR MAX TEMP:  59;

SOUTH HAVEN    SUNNY     62  35  36 W7        30.05F
$$
MIZ016>042-011900-
NORTHERN LOWER MICHIGAN

CITY           SKY/WX    TMP DP  RH WIND       PRES   REMARKS
ALPENA         SUNNY     45  24  43 E14       30.09F
6HR MIN TEMP:  31; 6HR MAX TEMP:  46;

BEAVER ISLAND  PTSUNNY   45  31  60 S6        30.06F
6HR MIN TEMP:  28; 6HR MAX TEMP:  46;

BELLAIRE       MOSUNNY   52  29  40 SW8       30.05F
6HR MIN TEMP:  32; 6HR MAX TEMP:  53;

CADILLAC       MOSUNNY   52  32  46 SE8       30.04F
CHARLEVOIX     PTSUNNY   43  32  66 N6        30.08S
FRANKFORT      PTSUNNY   51  30  44 SW3       30.04F
GAYLORD        MOSUNNY   46  28  49 SW12      30.04F
6HR MIN TEMP:  30; 6HR MAX TEMP:  46;

GRAYLING       MOSUNNY   49  26  41 S6        30.06F
HARBOR SPRINGS MOSUNNY   48  30  49 SW6       30.05F
HOUGHTON LAKE  MOSUNNY   49  28  44 SW6       30.07F
6HR MIN TEMP:  24; 6HR MAX TEMP:  49;

MANISTEE       CLOUDY    52  30  43 SE5       30.05
OSCODA         SUNNY     47  26  43 S9        30.10F
PELLSTON       SUNNY     48  30  49 MISG      30.05F
6HR MIN TEMP:  31; 6HR MAX TEMP:  49;

ROGERS CITY    MOSUNNY   48  31  52 S7        30.07F
TRAVERSE CITY  PTSUNNY   53  30  41 SW9       30.03F
6HR MIN TEMP:  26; 6HR MAX TEMP:  54;

$$
MIZ007>008-015-011900-
EASTERN UPPER MICHIGAN

CITY           SKY/WX    TMP DP  RH WIND       PRES   REMARKS
KINROSS        FAIR      41  30  65 SE14      30.05F
6HR MIN TEMP:  30; 6HR MAX TEMP:  41;

MACKINAC ISLAN SUNNY     36  32  85 E10       30.06F WCI  29
6HR MIN TEMP:  30; 6HR MAX TEMP:  37;

NEWBERRY       FAIR      38  30  73 S9        30.03F WCI  32
6HR MIN TEMP:  24; 6HR MAX TEMP:  38;

S. S. MARIE    FAIR      40  30  67 SE8       30.05F WCI  34
6HR MIN TEMP:  28; 6HR MAX TEMP:  40;

MUNISING         N/A     59  30  33 S14G25    29.97F
6HR MIN TEMP:  41; 6HR MAX TEMP:  62;

$$
MIZ004>006-011>014-085-011900-
CENTRAL UPPER MICHIGAN

CITY           SKY/WX    TMP DP  RH WIND       PRES   REMARKS
MANISTIQUE     CLOUDY    32  31  98 SE7       30.04F WCI  26
6HR MIN TEMP:  29; 6HR MAX TEMP:  34;

ESCANABA       CLOUDY    36  30  80 SE7       30.02F WCI  30
6HR MIN TEMP:  27; 6HR MAX TEMP:  36;

MENOMINEE      PTSUNNY   39  30  70 SE8       30.01F WCI  34
6HR MIN TEMP:  25; 6HR MAX TEMP:  41;

SAWYER-GWINN   PTSUNNY   39  30  70 S16       29.95F WCI  30
$$
MIZ001>003-009>011-084-011900-
WESTERN UPPER MICHIGAN

CITY           SKY/WX    TMP DP  RH WIND       PRES   REMARKS
IRON MOUNTAIN  PTSUNNY   45  30  55 SE13G21   29.93F
6HR MIN TEMP:  31; 6HR MAX TEMP:  45;

HOUGHTON       MIX PCPN  32  29  88 E14       29.85F WCI  22
6HR MIN TEMP:  28; 6HR MAX TEMP:  32; 6HR PCP: TRACE;

COPPER HARBOR    N/A     34  29  82 SW8G21    29.90F WCI  27
6HR MIN TEMP:  29; 6HR MAX TEMP:  34;

IRONWOOD       FAIR      54  34  47 S8G24     29.69F
6HR MIN TEMP:  36; 6HR MAX TEMP:  54;

$$

ABBREVIATIONS USED IN REMARKS
   TC - TEMPERATURE IN CELSIUS
  WCI - WIND CHILL INDEX
   HX - HEAT INDEX
  VSB - VISIBILITY




USA.gov is the U.S. government's official web portal to all federal, state and local government web resources and services.